When you browse on this site, cookies collect data to enhance your experience and personalize the content and advertising you see.
Visit our Privacy Policy to learn more. By continuing to use the site, you agree to this use of cookies and data.
  • In United Kingdom
  • List of Countries
  • For 7 days
  • Water Temperature
  • Satellite Maps
  • Weather Map
  • Weather Widgets
  • user-avatar
    Login

    Hourly Weather Nashavar

    Today, 18 December, Tuesday

    Time Temperature Precipitation Wind Pressure Humidity
    00:00 +15°C° 0 mm 1 mps 735 mmHg 15%
    01:00 +14°C° 0 mm 1 mps 735 mmHg 15%
    02:00 +14°C° 0 mm 1 mps 735 mmHg 15%
    03:00 +14°C° 0 mm 2 mps 734 mmHg 15%
    04:00 +13°C° 0 mm 2 mps 734 mmHg 15%
    05:00 +13°C° 0 mm 1 mps 734 mmHg 16%
    06:00 +13°C° 0 mm 1 mps 734 mmHg 16%
    07:00 +13°C° 0 mm 1 mps 734 mmHg 15%
    08:00 +13°C° 0 mm 1 mps 734 mmHg 15%
    09:00 +16°C° 0 mm 1 mps 734 mmHg 14%
    10:00 +19°C° 0 mm 1 mps 734 mmHg 12%
    11:00 +22°C° 0 mm 1 mps 734 mmHg 10%
    12:00 +22°C° 0 mm 1 mps 734 mmHg 10%
    13:00 +23°C° 0 mm 1 mps 733 mmHg 9%
    14:00 +24°C° 0 mm 1 mps 733 mmHg 9%
    15:00 +23°C° 0 mm 1 mps 732 mmHg 11%
    16:00 +21°C° 0 mm 1 mps 732 mmHg 14%
    17:00 +18°C° 0 mm 0 mps 732 mmHg 16%
    18:00 +17°C° 0 mm 0 mps 732 mmHg 16%
    19:00 +17°C° 0 mm 0 mps 732 mmHg 16%
    20:00 +16°C° 0 mm 0 mps 732 mmHg 16%
    21:00 +16°C° 0 mm 0 mps 732 mmHg 16%
    22:00 +15°C° 0 mm 0 mps 732 mmHg 17%
    23:00 +15°C° 0 mm 0 mps 732 mmHg 17%

    Tomorrow, 19 December, Wednesday

    Time Temperature Precipitation Wind Pressure Humidity
    00:00 +14°C° 0 mm 0 mps 732 mmHg 18%
    01:00 +14°C° 0 mm 0 mps 732 mmHg 18%
    02:00 +13°C° 0 mm 0 mps 732 mmHg 18%
    03:00 +13°C° 0 mm 0 mps 732 mmHg 19%
    04:00 +13°C° 0 mm 0 mps 732 mmHg 19%
    05:00 +12°C° 0 mm 0 mps 731 mmHg 20%
    06:00 +12°C° 0 mm 0 mps 732 mmHg 20%
    07:00 +13°C° 0 mm 1 mps 732 mmHg 20%
    08:00 +14°C° 0 mm 1 mps 732 mmHg 20%
    09:00 +16°C° 0 mm 1 mps 732 mmHg 18%
    10:00 +19°C° 0 mm 1 mps 732 mmHg 15%
    11:00 +21°C° 0 mm 1 mps 733 mmHg 12%
    12:00 +22°C° 0 mm 1 mps 732 mmHg 12%
    13:00 +23°C° 0 mm 1 mps 732 mmHg 11%
    14:00 +23°C° 0 mm 1 mps 731 mmHg 11%
    15:00 +22°C° 0 mm 1 mps 731 mmHg 13%
    16:00 +21°C° 0 mm 1 mps 731 mmHg 15%
    17:00 +17°C° 0 mm 0 mps 731 mmHg 17%
    18:00 +16°C° 0 mm 0 mps 732 mmHg 18%
    19:00 +16°C° 0 mm 0 mps 732 mmHg 19%
    20:00 +15°C° 0 mm 0 mps 733 mmHg 19%
    21:00 +15°C° 0 mm 1 mps 733 mmHg 19%
    22:00 +15°C° 0 mm 1 mps 733 mmHg 19%
    23:00 +14°C° 0 mm 1 mps 733 mmHg 20%

    Day after tomorrow, 20 December, Thursday

    Time Temperature Precipitation Wind Pressure Humidity
    00:00 +14°C° 0 mm 1 mps 733 mmHg 19%
    01:00 +14°C° 0 mm 1 mps 733 mmHg 19%
    02:00 +13°C° 0 mm 1 mps 734 mmHg 19%
    03:00 +13°C° 0 mm 1 mps 733 mmHg 19%
    04:00 +13°C° 0 mm 1 mps 733 mmHg 19%
    05:00 +12°C° 0 mm 2 mps 733 mmHg 19%
    06:00 +12°C° 0 mm 2 mps 734 mmHg 18%
    07:00 +13°C° 0 mm 2 mps 734 mmHg 18%
    08:00 +13°C° 0 mm 2 mps 735 mmHg 17%
    09:00 +15°C° 0 mm 2 mps 735 mmHg 15%
    10:00 +17°C° 0 mm 2 mps 735 mmHg 13%
    11:00 +19°C° 0 mm 2 mps 735 mmHg 11%
    12:00 +20°C° 0 mm 2 mps 735 mmHg 10%
    13:00 +21°C° 0 mm 2 mps 734 mmHg 10%
    14:00 +23°C° 0 mm 2 mps 733 mmHg 10%
    15:00 +20°C° 0 mm 2 mps 733 mmHg 12%
    16:00 +20°C° 0 mm 1 mps 733 mmHg 13%
    17:00 +19°C° 0 mm 1 mps 733 mmHg 15%
    18:00 +18°C° 0 mm 1 mps 733 mmHg 15%
    19:00 +16°C° 0 mm 1 mps 733 mmHg 15%
    20:00 +15°C° 0 mm 1 mps 734 mmHg 15%
    21:00 +15°C° 0 mm 2 mps 734 mmHg 15%
    22:00 +14°C° 0 mm 2 mps 734 mmHg 16%
    23:00 +14°C° 0 mm 2 mps 734 mmHg 16%

    21 December, Friday

    Time Temperature Precipitation Wind Pressure Humidity
    00:00 +14°C° 0 mm 2 mps 733 mmHg 16%
    01:00 +13°C° 0 mm 2 mps 733 mmHg 16%
    02:00 +13°C° 0 mm 2 mps 733 mmHg 17%
    03:00 +13°C° 0 mm 2 mps 733 mmHg 17%
    04:00 +12°C° 0 mm 2 mps 732 mmHg 17%
    05:00 +12°C° 0 mm 2 mps 732 mmHg 17%
    06:00 +12°C° 0 mm 2 mps 732 mmHg 17%
    07:00 +12°C° 0 mm 2 mps 732 mmHg 18%
    08:00 +12°C° 0 mm 2 mps 733 mmHg 18%
    09:00 +15°C° 0 mm 2 mps 733 mmHg 15%
    10:00 +18°C° 0 mm 1 mps 733 mmHg 13%
    11:00 +20°C° 0 mm 1 mps 733 mmHg 11%
    12:00 +21°C° 0 mm 1 mps 732 mmHg 10%
    13:00 +22°C° 0 mm 1 mps 732 mmHg 10%
    14:00 +23°C° 0 mm 1 mps 731 mmHg 9%
    15:00 +21°C° 0 mm 1 mps 731 mmHg 12%
    16:00 +20°C° 0 mm 1 mps 730 mmHg 14%
    17:00 +18°C° 0 mm 1 mps 730 mmHg 16%
    18:00 +18°C° 0 mm 1 mps 731 mmHg 16%
    19:00 +16°C° 0 mm 1 mps 731 mmHg 16%
    20:00 +15°C° 0 mm 1 mps 731 mmHg 16%
    21:00 +15°C° 0 mm 1 mps 732 mmHg 16%
    22:00 +14°C° 0 mm 1 mps 732 mmHg 16%
    23:00 +14°C° 0 mm 1 mps 732 mmHg 16%

    22 December, Saturday

    Time Temperature Precipitation Wind Pressure Humidity
    00:00 +14°C° 0 mm 1 mps 732 mmHg 16%
    01:00 +13°C° 0 mm 1 mps 731 mmHg 16%
    02:00 +13°C° 0 mm 1 mps 731 mmHg 16%
    03:00 +13°C° 0 mm 1 mps 731 mmHg 16%
    04:00 +12°C° 0 mm 1 mps 731 mmHg 16%
    05:00 +12°C° 0 mm 2 mps 731 mmHg 16%
    06:00 +12°C° 0 mm 1 mps 731 mmHg 16%
    07:00 +12°C° 0 mm 1 mps 732 mmHg 16%
    08:00 +12°C° 0 mm 1 mps 732 mmHg 16%
    09:00 +15°C° 0 mm 1 mps 732 mmHg 14%
    10:00 +18°C° 0 mm 1 mps 732 mmHg 12%
    11:00 +20°C° 0 mm 1 mps 733 mmHg 10%
    12:00 +21°C° 0 mm 1 mps 732 mmHg 9%
    13:00 +22°C° 0 mm 1 mps 732 mmHg 9%
    14:00 +23°C° 0 mm 1 mps 731 mmHg 8%
    15:00 +21°C° 0 mm 1 mps 731 mmHg 11%
    16:00 +20°C° 0 mm 1 mps 731 mmHg 13%
    17:00 +16°C° 0 mm 0 mps 731 mmHg 15%
    18:00 +15°C° 0 mm 0 mps 731 mmHg 15%
    19:00 +15°C° 0 mm 0 mps 732 mmHg 15%
    20:00 +14°C° 0 mm 0 mps 732 mmHg 15%
    21:00 +14°C° 0 mm 1 mps 732 mmHg 15%
    22:00 +14°C° 0 mm 1 mps 732 mmHg 16%
    23:00 +13°C° 0 mm 1 mps 733 mmHg 16%

    23 December, Sunday

    Time Temperature Precipitation Wind Pressure Humidity
    00:00 +13°C° 0 mm 1 mps 732 mmHg 16%
    01:00 +13°C° 0 mm 1 mps 732 mmHg 16%
    02:00 +12°C° 0 mm 1 mps 732 mmHg 16%
    03:00 +12°C° 0 mm 1 mps 732 mmHg 16%
    04:00 +12°C° 0 mm 1 mps 732 mmHg 17%
    05:00 +11°C° 0 mm 1 mps 732 mmHg 17%
    06:00 +11°C° 0 mm 1 mps 732 mmHg 17%
    07:00 +11°C° 0 mm 1 mps 732 mmHg 17%
    08:00 +12°C° 0 mm 1 mps 732 mmHg 17%
    09:00 +14°C° 0 mm 1 mps 733 mmHg 15%
    10:00 +15°C° 0 mm 1 mps 733 mmHg 13%
    11:00 +18°C° 0 mm 1 mps 733 mmHg 11%
    12:00 +18°C° 0 mm 2 mps 733 mmHg 10%
    13:00 +19°C° 0 mm 2 mps 732 mmHg 10%
    14:00 +19°C° 0 mm 2 mps 732 mmHg 10%
    15:00 +18°C° 0 mm 2 mps 732 mmHg 12%
    16:00 +17°C° 0 mm 2 mps 732 mmHg 14%
    17:00 +16°C° 0 mm 2 mps 732 mmHg 15%
    18:00 +16°C° 0 mm 2 mps 732 mmHg 15%
    19:00 +15°C° 0 mm 2 mps 732 mmHg 15%
    20:00 +14°C° 0 mm 2 mps 733 mmHg 15%
    21:00 +14°C° 0 mm 2 mps 733 mmHg 15%
    22:00 +14°C° 0 mm 2 mps 733 mmHg 15%
    23:00 +13°C° 0 mm 2 mps 733 mmHg 15%
    Show more